Location: Seattle
(47.6064°N, 122.3308°W)
Time: 01:21:15
(UTC-08:00)

Tiros 1 - Pass Details

Date: 27 November 2020
Orbit: 630 x 663 km, 48.4° (Epoch: 28 January)

Event Time Altitude Azimuth Distance (km) Brightness Sun altitude
Rises 19:31:20 0° 280° (W) 2,988 11.7 -31.3°
Reaches altitude 10° 19:33:42 10° 280° (W) 2,071 10.6 -31.7°
Enters shadow 19:36:23 34° 281° (W) 1,089 8.7 -32.1°
Maximum altitude 19:38:29 89° 9° (N) 659 - -32.5°
Drops below altitude 10° 19:43:14 10° 101° (E) 2,048 - -33.3°
Sets 19:45:33 0° 102° (ESE) 2,951 - -33.7°
